TimeCDT,TemperatureF,Dew PointF,Humidity,Sea Level PressureIn,VisibilityMPH,Wind Direction,Wind SpeedMPH,Gust SpeedMPH,PrecipitationIn,Events,Conditions,WindDirDegrees,DateUTC
12:15 AM,70.9,46.9,42,30.04,10.0,ESE,9.2,-,N/A,,Clear,120,2013-05-06 05:15:00
12:35 AM,70.2,47.3,44,30.04,10.0,SE,9.2,-,N/A,,Clear,130,2013-05-06 05:35:00
12:55 AM,69.6,47.8,46,30.04,10.0,ESE,10.4,-,N/A,,Clear,120,2013-05-06 05:55:00
1:15 AM,68.9,48.7,49,30.04,10.0,SE,8.1,-,N/A,,Clear,130,2013-05-06 06:15:00
1:35 AM,68.4,49.3,50,30.04,10.0,ESE,8.1,-,N/A,,Clear,120,2013-05-06 06:35:00
1:55 AM,67.5,49.6,53,30.04,10.0,SE,8.1,-,N/A,,Clear,130,2013-05-06 06:55:00
2:15 AM,66.7,50.2,55,30.04,10.0,ESE,6.9,-,N/A,,Clear,120,2013-05-06 07:15:00
2:35 AM,66.2,50.9,58,30.03,10.0,ESE,6.9,-,N/A,,Clear,110,2013-05-06 07:35:00
2:55 AM,65.5,51.4,60,30.03,10.0,ESE,6.9,-,N/A,,Clear,110,2013-05-06 07:55:00
3:15 AM,64.9,52.0,63,30.02,10.0,ESE,6.9,-,N/A,,Clear,110,2013-05-06 08:15:00
3:35 AM,64.4,52.3,65,30.01,10.0,ESE,8.1,-,N/A,,Clear,110,2013-05-06 08:35:00
3:55 AM,63.9,52.9,67,30.01,10.0,ESE,6.9,-,N/A,,Clear,120,2013-05-06 08:55:00
4:15 AM,63.5,53.6,70,30.00,10.0,ESE,8.1,-,N/A,,Clear,110,2013-05-06 09:15:00
4:35 AM,63.1,53.8,71,30.00,10.0,ESE,5.8,-,N/A,,Clear,120,2013-05-06 09:35:00
4:55 AM,62.8,54.5,74,30.00,10.0,ESE,6.9,-,N/A,,Clear,110,2013-05-06 09:55:00
5:15 AM,62.8,55.4,77,30.00,10.0,East,8.1,-,N/A,,Clear,100,2013-05-06 10:15:00
5:55 AM,62.6,56.3,80,30.00,10.0,ESE,9.2,-,N/A,,Clear,110,2013-05-06 10:55:00
6:15 AM,62.2,56.3,81,30.01,10.0,ESE,4.6,-,N/A,,Clear,120,2013-05-06 11:15:00
6:35 AM,62.1,56.5,82,30.02,10.0,ESE,4.6,-,N/A,,Clear,120,2013-05-06 11:35:00
6:55 AM,61.9,56.7,83,30.02,10.0,ESE,4.6,-,N/A,,Clear,110,2013-05-06 11:55:00
7:15 AM,62.6,57.2,82,30.03,10.0,ESE,4.6,-,N/A,,Clear,120,2013-05-06 12:15:00
7:35 AM,63.7,57.2,79,30.04,10.0,ESE,5.8,-,N/A,,Clear,110,2013-05-06 12:35:00
7:55 AM,65.3,57.4,76,30.05,10.0,ESE,6.9,-,N/A,,Clear,120,2013-05-06 12:55:00
8:15 AM,66.6,57.6,73,30.06,10.0,ESE,8.1,-,N/A,,Clear,120,2013-05-06 13:15:00
8:35 AM,68.0,57.9,70,30.06,10.0,ESE,10.4,-,N/A,,Clear,120,2013-05-06 13:35:00
8:55 AM,70.2,58.6,67,30.07,10.0,SE,9.2,-,N/A,,Clear,130,2013-05-06 13:55:00
9:15 AM,70.2,58.6,67,30.07,10.0,SE,11.5,-,N/A,,Clear,130,2013-05-06 14:15:00
9:35 AM,72.3,58.6,62,30.06,10.0,SE,10.4,-,N/A,,Clear,140,2013-05-06 14:35:00
9:55 AM,71.8,58.1,62,30.05,10.0,SE,11.5,-,N/A,,Clear,130,2013-05-06 14:55:00
10:15 AM,73.8,57.6,57,30.05,10.0,ESE,12.7,-,N/A,,Clear,110,2013-05-06 15:15:00
10:35 AM,75.7,57.0,52,30.05,10.0,ESE,11.5,-,N/A,,Clear,110,2013-05-06 15:35:00
10:55 AM,77.7,55.6,46,30.04,10.0,ESE,11.5,-,N/A,,Clear,120,2013-05-06 15:55:00
11:15 AM,79.3,54.0,41,30.04,10.0,ESE,12.7,19.6,N/A,,Clear,110,2013-05-06 16:15:00
11:35 AM,79.5,51.4,37,30.05,10.0,SE,9.2,19.6,N/A,,Clear,140,2013-05-06 16:35:00
11:55 AM,78.1,49.6,37,30.04,10.0,East,11.5,-,N/A,,Clear,100,2013-05-06 16:55:00
12:15 PM,79.2,48.6,34,30.02,10.0,East,15.0,21.9,N/A,,Clear,100,2013-05-06 17:15:00
12:35 PM,81.3,47.7,31,30.03,10.0,ESE,9.2,17.3,N/A,,Clear,120,2013-05-06 17:35:00
12:55 PM,83.1,46.9,28,30.02,10.0,ESE,9.2,18.4,N/A,,Clear,120,2013-05-06 17:55:00
1:15 PM,84.2,45.3,26,30.01,10.0,East,13.8,19.6,N/A,,Clear,100,2013-05-06 18:15:00
1:35 PM,84.9,43.9,24,30.00,10.0,East,11.5,18.4,N/A,,Clear,90,2013-05-06 18:35:00
1:55 PM,85.3,41.9,22,29.98,10.0,East,10.4,17.3,N/A,,Clear,100,2013-05-06 18:55:00
2:15 PM,86.9,42.4,21,29.97,10.0,SSE,10.4,20.7,N/A,,Clear,150,2013-05-06 19:15:00
2:35 PM,88.0,40.6,19,29.97,10.0,SE,10.4,17.3,N/A,,Clear,140,2013-05-06 19:35:00
2:55 PM,87.4,41.0,20,29.96,10.0,SE,11.5,17.3,N/A,,Clear,140,2013-05-06 19:55:00
3:15 PM,88.3,40.3,18,29.95,10.0,ESE,10.4,21.9,N/A,,Clear,110,2013-05-06 20:15:00
3:35 PM,88.7,37.6,16,29.94,10.0,SE,11.5,17.3,N/A,,Clear,130,2013-05-06 20:35:00
3:55 PM,89.2,38.5,17,29.93,10.0,ESE,13.8,20.7,N/A,,Clear,120,2013-05-06 20:55:00
4:15 PM,88.9,37.8,16,29.92,10.0,ESE,13.8,18.4,N/A,,Clear,120,2013-05-06 21:15:00
4:35 PM,89.2,38.3,17,29.91,10.0,SSE,10.4,18.4,N/A,,Clear,150,2013-05-06 21:35:00
4:55 PM,89.4,38.7,17,29.90,10.0,SSE,13.8,19.6,N/A,,Clear,150,2013-05-06 21:55:00
5:15 PM,88.9,38.5,17,29.90,10.0,SSE,10.4,-,N/A,,Clear,150,2013-05-06 22:15:00
5:35 PM,88.5,37.6,17,29.90,10.0,SE,9.2,-,N/A,,Clear,140,2013-05-06 22:35:00
5:55 PM,88.2,36.7,16,29.90,10.0,ESE,13.8,20.7,N/A,,Clear,120,2013-05-06 22:55:00
6:15 PM,87.8,36.9,16,29.90,10.0,SE,12.7,19.6,N/A,,Clear,130,2013-05-06 23:15:00
6:35 PM,86.9,37.6,17,29.90,10.0,SE,9.2,16.1,N/A,,Clear,130,2013-05-06 23:35:00
6:55 PM,86.4,39.0,19,29.91,10.0,ESE,11.5,19.6,N/A,,Clear,110,2013-05-06 23:55:00
7:15 PM,85.6,38.5,19,29.91,10.0,ESE,10.4,-,N/A,,Clear,120,2013-05-07 00:15:00
7:35 PM,84.7,41.7,22,29.92,10.0,ESE,13.8,18.4,N/A,,Clear,110,2013-05-07 00:35:00
7:55 PM,82.6,45.7,27,29.93,10.0,ESE,17.3,21.9,N/A,,Clear,110,2013-05-07 00:55:00
8:15 PM,81.1,45.7,29,29.93,10.0,ESE,13.8,20.7,N/A,,Clear,110,2013-05-07 01:15:00
8:35 PM,80.1,44.8,29,29.94,10.0,ESE,15.0,23.0,N/A,,Clear,110,2013-05-07 01:35:00
8:55 PM,79.0,45.3,30,29.95,10.0,ESE,17.3,25.3,N/A,,Clear,120,2013-05-07 01:55:00
9:15 PM,77.9,47.7,34,29.97,10.0,ESE,18.4,23.0,N/A,,Clear,110,2013-05-07 02:15:00
9:35 PM,77.0,49.5,38,29.97,10.0,ESE,18.4,24.2,N/A,,Clear,110,2013-05-07 02:35:00
9:55 PM,75.9,50.9,41,29.99,10.0,ESE,12.7,28.8,N/A,,Clear,120,2013-05-07 02:55:00
10:15 PM,75.0,52.0,44,30.00,10.0,ESE,18.4,23.0,N/A,,Clear,120,2013-05-07 03:15:00
10:35 PM,73.9,53.1,48,30.01,10.0,ESE,12.7,20.7,N/A,,Clear,120,2013-05-07 03:35:00
11:15 PM,72.5,53.8,52,30.01,10.0,SE,11.5,18.4,N/A,,Clear,140,2013-05-07 04:15:00
11:35 PM,72.1,53.6,52,30.01,10.0,ESE,13.8,19.6,N/A,,Clear,120,2013-05-07 04:35:00
11:55 PM,71.2,54.3,55,30.01,10.0,SE,9.2,-,N/A,,Clear,130,2013-05-07 04:55:00